| time (UTC) | temp C | wind direction | speed KPH | gust KPH | rain 1hr cm | rain 24hr cm | rain mn cm | humidity % | barometer mb |
| 20260509000035 | 8 | 117 | 0.0 | 1.6 | 0.00 | 0.00 | 0.00 | 66 | 1012.1 |
| 20260508235530 | 9 | 0 | 0.0 | 1.6 | 0.00 | 0.00 | 0.00 | 64 | 1011.9 |
| 20260508235028 | 9 | 0 | 0.0 | 1.6 | 0.00 | 0.00 | 0.00 | 64 | 1011.9 |
| 20260508234544 | 10 | 39 | 0.0 | 1.6 | 0.00 | 0.00 | 0.00 | 63 | 1011.7 |
| 20260508234029 | 10 | 0 | 0.0 | 1.6 | 0.00 | 0.00 | 0.00 | 61 | 1011.7 |
| 20260508233529 | 10 | 0 | 0.0 | 1.6 | 0.00 | 0.00 | 0.00 | 59 | 1011.6 |
| 20260508233044 | 11 | 0 | 0.0 | 1.6 | 0.00 | 0.00 | 0.00 | 56 | 1011.5 |
| 20260508232528 | 11 | 0 | 0.0 | 3.2 | 0.00 | 0.00 | 0.00 | 56 | 1011.4 |
| 20260508232028 | 11 | 0 | 0.0 | 3.2 | 0.00 | 0.00 | 0.00 | 53 | 1011.4 |
| 20260508231542 | 11 | 338 | 0.0 | 14.5 | 0.00 | 0.00 | 0.00 | 53 | 1011.5 |
| 20260508231029 | 11 | 354 | 0.0 | 14.5 | 0.00 | 0.00 | 0.00 | 53 | 1011.4 |
| 20260508230529 | 12 | 326 | 1.6 | 14.5 | 0.00 | 0.00 | 0.00 | 51 | 1011.3 |
| 20260508230042 | 12 | 321 | 3.2 | 16.1 | 0.00 | 0.00 | 0.00 | 51 | 1011.4 |
| 20260508225528 | 12 | 332 | 3.2 | 19.3 | 0.00 | 0.00 | 0.00 | 50 | 1011.4 |
| 20260508225032 | 12 | 229 | 6.4 | 19.3 | 0.00 | 0.00 | 0.00 | 49 | 1011.3 |
| 20260508224541 | 13 | 291 | 3.2 | 11.3 | 0.00 | 0.00 | 0.00 | 50 | 1011.3 |
| 20260508224029 | 13 | 352 | 3.2 | 14.5 | 0.00 | 0.00 | 0.00 | 50 | 1011.3 |
| 20260508223529 | 13 | 309 | 4.8 | 14.5 | 0.00 | 0.00 | 0.00 | 49 | 1011.3 |
| 20260508223042 | 13 | 304 | 1.6 | 20.9 | 0.00 | 0.00 | 0.00 | 49 | 1011.1 |
| 20260508222529 | 13 | 343 | 1.6 | 20.9 | 0.00 | 0.00 | 0.00 | 50 | 1011.1 |
| 20260508222029 | 13 | 345 | 4.8 | 16.1 | 0.00 | 0.00 | 0.00 | 48 | 1011.2 |
| 20260508221545 | 13 | 322 | 6.4 | 16.1 | 0.00 | 0.00 | 0.00 | 47 | 1011.0 |
| 20260508221032 | 13 | 345 | 1.6 | 20.9 | 0.00 | 0.00 | 0.00 | 49 | 1010.9 |
| 20260508220526 | 13 | 314 | 3.2 | 20.9 | 0.00 | 0.00 | 0.00 | 49 | 1011.1 |
| 20260508220046 | 13 | 341 | 8.0 | 20.9 | 0.00 | 0.00 | 0.00 | 48 | 1011.1 |
| 20260508215528 | 13 | 251 | 6.4 | 9.7 | 0.00 | 0.00 | 0.00 | 49 | 1010.8 |
| 20260508215031 | 13 | 87 | 1.6 | 8.0 | 0.00 | 0.00 | 0.00 | 51 | 1010.8 |
| 20260508214553 | 13 | 319 | 3.2 | 8.0 | 0.00 | 0.00 | 0.00 | 51 | 1010.9 |
| 20260508214029 | 13 | 314 | 1.6 | 8.0 | 0.00 | 0.00 | 0.00 | 50 | 1010.9 |
| 20260508213528 | 13 | 152 | 1.6 | 9.7 | 0.00 | 0.00 | 0.00 | 54 | 1011.1 |
| 20260508213038 | 12 | 122 | 3.2 | 12.9 | 0.00 | 0.00 | 0.00 | 51 | 1011.1 |
| 20260508212529 | 13 | 314 | 4.8 | 12.9 | 0.00 | 0.00 | 0.00 | 50 | 1010.9 |
| 20260508212033 | 13 | 203 | 6.4 | 12.9 | 0.00 | 0.00 | 0.00 | 51 | 1011.0 |
| 20260508211537 | 13 | 319 | 4.8 | 11.3 | 0.00 | 0.00 | 0.00 | 49 | 1011.0 |
| 20260508211030 | 13 | 4 | 4.8 | 12.9 | 0.00 | 0.00 | 0.00 | 49 | 1010.9 |
| 20260508210530 | 13 | 340 | 4.8 | 14.5 | 0.00 | 0.00 | 0.00 | 48 | 1010.8 |
| 20260508210041 | 14 | 350 | 3.2 | 17.7 | 0.00 | 0.00 | 0.00 | 49 | 1010.6 |
| 20260508205528 | 13 | 158 | 3.2 | 17.7 | 0.00 | 0.00 | 0.00 | 47 | 1010.8 |
| 20260508205029 | 13 | 62 | 4.8 | 14.5 | 0.00 | 0.00 | 0.00 | 50 | 1010.7 |
| 20260508204546 | 13 | 161 | 3.2 | 12.9 | 0.00 | 0.00 | 0.00 | 53 | 1010.7 |
| 20260508204035 | 13 | 141 | 1.6 | 12.9 | 0.00 | 0.00 | 0.00 | 52 | 1010.6 |
| 20260508203528 | 13 | 0 | 0.0 | 8.0 | 0.00 | 0.00 | 0.00 | 54 | 1010.8 |
| 20260508203047 | 13 | 225 | 0.0 | 8.0 | 0.00 | 0.00 | 0.00 | 53 | 1010.9 |
| 20260508202529 | 13 | 291 | 1.6 | 9.7 | 0.00 | 0.00 | 0.00 | 56 | 1010.8 |
| 20260508202028 | 12 | 294 | 3.2 | 9.7 | 0.00 | 0.00 | 0.00 | 56 | 1010.9 |
| 20260508201543 | 13 | 353 | 3.2 | 9.7 | 0.00 | 0.00 | 0.00 | 52 | 1010.9 |
| 20260508201031 | 13 | 84 | 1.6 | 9.7 | 0.00 | 0.00 | 0.00 | 54 | 1011.0 |
| 20260508200529 | 13 | 292 | 3.2 | 9.7 | 0.00 | 0.00 | 0.00 | 58 | 1011.1 |
| 20260508200043 | 13 | 175 | 3.2 | 9.7 | 0.00 | 0.00 | 0.00 | 55 | 1010.8 |
| 20260508195529 | 13 | 0 | 3.2 | 9.7 | 0.00 | 0.00 | 0.00 | 55 | 1010.9 |
| 20260508195029 | 13 | 167 | 1.6 | 9.7 | 0.00 | 0.00 | 0.00 | 59 | 1010.9 |
| 20260508194555 | 13 | 105 | 3.2 | 14.5 | 0.00 | 0.00 | 0.00 | 54 | 1011.1 |
| 20260508194028 | 12 | 155 | 3.2 | 14.5 | 0.00 | 0.00 | 0.00 | 60 | 1011.2 |
| 20260508193529 | 12 | 22 | 3.2 | 8.0 | 0.00 | 0.00 | 0.00 | 56 | 1011.2 |
| 20260508193100 | 12 | 279 | 3.2 | 8.0 | 0.00 | 0.00 | 0.00 | 61 | 1011.2 |
| 20260508192529 | 12 | 198 | 1.6 | 9.7 | 0.00 | 0.00 | 0.00 | 56 | 1011.3 |
| 20260508192029 | 11 | 238 | 1.6 | 14.5 | 0.00 | 0.00 | 0.00 | 54 | 1011.2 |
| 20260508191543 | 11 | 276 | 6.4 | 14.5 | 0.00 | 0.00 | 0.00 | 54 | 1011.2 |
| 20260508191028 | 11 | 325 | 3.2 | 11.3 | 0.00 | 0.00 | 0.00 | 54 | 1011.1 |
| 20260508190529 | 12 | 328 | 3.2 | 11.3 | 0.00 | 0.00 | 0.00 | 53 | 1011.2 |
| 20260508190045 | 12 | 162 | 1.6 | 8.0 | 0.00 | 0.00 | 0.00 | 53 | 1011.0 |
| 20260508185529 | 12 | 199 | 3.2 | 12.9 | 0.00 | 0.00 | 0.00 | 52 | 1011.0 |
| 20260508185028 | 12 | 200 | 3.2 | 12.9 | 0.00 | 0.00 | 0.00 | 54 | 1011.0 |
| 20260508184555 | 12 | 181 | 4.8 | 12.9 | 0.00 | 0.00 | 0.00 | 52 | 1010.9 |
| 20260508184029 | 12 | 222 | 3.2 | 11.3 | 0.00 | 0.00 | 0.00 | 52 | 1010.9 |
| 20260508183531 | 12 | 208 | 6.4 | 11.3 | 0.00 | 0.00 | 0.00 | 50 | 1010.8 |
| 20260508183042 | 12 | 302 | 1.6 | 11.3 | 0.00 | 0.00 | 0.00 | 47 | 1010.6 |
| 20260508182529 | 12 | 295 | 1.6 | 11.3 | 0.00 | 0.00 | 0.00 | 47 | 1010.6 |
| 20260508182031 | 12 | 267 | 3.2 | 11.3 | 0.00 | 0.00 | 0.00 | 45 | 1010.7 |
| 20260508181555 | 12 | 285 | 1.6 | 11.3 | 0.00 | 0.00 | 0.00 | 44 | 1010.6 |
| 20260508181029 | 12 | 352 | 3.2 | 11.3 | 0.00 | 0.00 | 0.00 | 43 | 1010.7 |
| 20260508180529 | 12 | 26 | 1.6 | 16.1 | 0.00 | 0.00 | 0.00 | 46 | 1010.6 |
| 20260508180046 | 12 | 0 | 4.8 | 17.7 | 0.00 | 0.00 | 0.00 | 44 | 1010.6 |
| 20260508175529 | 12 | 331 | 6.4 | 25.7 | 0.00 | 0.00 | 0.00 | 45 | 1010.6 |
| 20260508175030 | 12 | 271 | 9.7 | 25.7 | 0.00 | 0.00 | 0.00 | 44 | 1010.6 |
| 20260508174541 | 13 | 294 | 6.4 | 22.5 | 0.00 | 0.00 | 0.00 | 46 | 1010.6 |
| 20260508174028 | 13 | 149 | 9.7 | 22.5 | 0.00 | 0.00 | 0.00 | 44 | 1010.7 |
| 20260508173528 | 13 | 327 | 4.8 | 17.7 | 0.00 | 0.00 | 0.00 | 45 | 1010.6 |
| 20260508173042 | 13 | 3 | 4.8 | 17.7 | 0.00 | 0.00 | 0.00 | 47 | 1010.6 |
| 20260508172529 | 13 | 319 | 4.8 | 14.5 | 0.00 | 0.00 | 0.00 | 45 | 1010.6 |
| 20260508172031 | 13 | 200 | 1.6 | 16.1 | 0.00 | 0.00 | 0.00 | 45 | 1010.4 |
| 20260508171544 | 13 | 0 | 4.8 | 16.1 | 0.00 | 0.00 | 0.00 | 43 | 1010.3 |
| 20260508171029 | 13 | 259 | 3.2 | 12.9 | 0.00 | 0.00 | 0.00 | 45 | 1010.3 |
| 20260508170528 | 13 | 19 | 6.4 | 12.9 | 0.00 | 0.00 | 0.00 | 42 | 1010.1 |
| 20260508170041 | 13 | 293 | 3.2 | 11.3 | 0.00 | 0.00 | 0.00 | 43 | 1010.2 |
| 20260508165529 | 13 | 25 | 0.0 | 9.7 | 0.00 | 0.00 | 0.00 | 46 | 1010.2 |
| 20260508165029 | 13 | 276 | 3.2 | 14.5 | 0.00 | 0.00 | 0.00 | 44 | 1010.1 |
| 20260508164546 | 13 | 330 | 4.8 | 14.5 | 0.00 | 0.00 | 0.00 | 43 | 1010.1 |
| 20260508164031 | 13 | 260 | 6.4 | 14.5 | 0.00 | 0.00 | 0.00 | 42 | 1010.1 |
| 20260508163528 | 14 | 124 | 3.2 | 17.7 | 0.00 | 0.00 | 0.00 | 45 | 1010.2 |
| 20260508163047 | 14 | 340 | 6.4 | 17.7 | 0.00 | 0.00 | 0.00 | 51 | 1010.4 |
| 20260508162529 | 14 | 273 | 1.6 | 11.3 | 0.00 | 0.00 | 0.00 | 47 | 1010.3 |
| 20260508162028 | 14 | 236 | 1.6 | 11.3 | 0.00 | 0.00 | 0.00 | 45 | 1010.3 |
| 20260508161608 | 14 | 144 | 4.8 | 11.3 | 0.00 | 0.00 | 0.00 | 45 | 1010.2 |
| 20260508161030 | 14 | 295 | 3.2 | 11.3 | 0.00 | 0.00 | 0.00 | 45 | 1010.4 |
| 20260508160528 | 14 | 169 | 3.2 | 9.7 | 0.00 | 0.00 | 0.00 | 43 | 1010.4 |
| 20260508160059 | 13 | 271 | 4.8 | 11.3 | 0.00 | 0.00 | 0.00 | 51 | 1010.4 |
| 20260508155529 | 13 | 316 | 3.2 | 11.3 | 0.00 | 0.00 | 0.00 | 49 | 1010.6 |
| 20260508155029 | 13 | 170 | 3.2 | 12.9 | 0.00 | 0.00 | 0.00 | 47 | 1010.7 |
| 20260508154543 | 13 | 217 | 4.8 | 12.9 | 0.00 | 0.00 | 0.00 | 49 | 1010.7 |
| 20260508154030 | 13 | 286 | 4.8 | 12.9 | 0.00 | 0.00 | 0.00 | 51 | 1010.8 |
| 20260508153530 | 13 | 226 | 4.8 | 11.3 | 0.00 | 0.00 | 0.00 | 51 | 1011.0 |
| 20260508153045 | 12 | 136 | 3.2 | 9.7 | 0.00 | 0.00 | 0.00 | 51 | 1011.0 |
| 20260508152528 | 12 | 257 | 3.2 | 8.0 | 0.00 | 0.00 | 0.00 | 54 | 1011.1 |
| 20260508152029 | 12 | 147 | 1.6 | 14.5 | 0.00 | 0.00 | 0.00 | 52 | 1011.2 |
| 20260508151538 | 12 | 127 | 4.8 | 14.5 | 0.00 | 0.00 | 0.00 | 51 | 1011.1 |
| 20260508151030 | 12 | 307 | 6.4 | 11.3 | 0.00 | 0.00 | 0.00 | 55 | 1011.2 |
| 20260508150529 | 11 | 52 | 3.2 | 11.3 | 0.00 | 0.00 | 0.00 | 56 | 1011.2 |
| 20260508150042 | 12 | 27 | 0.0 | 12.9 | 0.00 | 0.00 | 0.00 | 53 | 1011.2 |
| 20260508145530 | 12 | 339 | 3.2 | 12.9 | 0.00 | 0.00 | 0.00 | 56 | 1011.2 |
| 20260508145034 | 11 | 307 | 3.2 | 8.0 | 0.00 | 0.00 | 0.00 | 54 | 1011.1 |
| 20260508144540 | 11 | 295 | 3.2 | 11.3 | 0.00 | 0.00 | 0.00 | 53 | 1011.3 |
| 20260508144029 | 11 | 333 | 4.8 | 19.3 | 0.00 | 0.00 | 0.00 | 57 | 1011.1 |
| 20260508143528 | 11 | 352 | 8.0 | 19.3 | 0.00 | 0.00 | 0.00 | 58 | 1011.2 |
| 20260508143055 | 11 | 322 | 9.7 | 19.3 | 0.00 | 0.00 | 0.00 | 55 | 1011.3 |
| 20260508142529 | 11 | 315 | 3.2 | 9.7 | 0.00 | 0.00 | 0.00 | 57 | 1011.4 |
| 20260508142029 | 11 | 360 | 4.8 | 14.5 | 0.00 | 0.00 | 0.00 | 58 | 1011.3 |
| 20260508141548 | 11 | 60 | 1.6 | 14.5 | 0.00 | 0.00 | 0.00 | 56 | 1011.4 |
| 20260508141028 | 11 | 4 | 4.8 | 14.5 | 0.00 | 0.00 | 0.00 | 56 | 1011.4 |
| 20260508140529 | 11 | 344 | 3.2 | 12.9 | 0.00 | 0.00 | 0.00 | 58 | 1011.4 |
| 20260508140041 | 11 | 0 | 1.6 | 12.9 | 0.00 | 0.00 | 0.00 | 57 | 1011.4 |
| 20260508135528 | 10 | 25 | 8.0 | 20.9 | 0.00 | 0.00 | 0.00 | 58 | 1011.4 |
| 20260508135029 | 10 | 267 | 8.0 | 20.9 | 0.00 | 0.00 | 0.00 | 58 | 1011.5 |
| 20260508134545 | 11 | 298 | 6.4 | 12.9 | 0.00 | 0.00 | 0.00 | 56 | 1011.6 |
| 20260508134028 | 11 | 189 | 3.2 | 17.7 | 0.00 | 0.00 | 0.00 | 56 | 1011.5 |
| 20260508133529 | 11 | 310 | 4.8 | 17.7 | 0.00 | 0.00 | 0.00 | 55 | 1011.6 |
| 20260508133053 | 11 | 13 | 6.4 | 16.1 | 0.00 | 0.00 | 0.00 | 56 | 1011.7 |
| 20260508132528 | 11 | 266 | 4.8 | 16.1 | 0.00 | 0.00 | 0.00 | 56 | 1011.7 |
| 20260508132031 | 11 | 299 | 8.0 | 14.5 | 0.00 | 0.00 | 0.00 | 56 | 1011.9 |
| 20260508131542 | 11 | 342 | 3.2 | 14.5 | 0.00 | 0.00 | 0.00 | 57 | 1011.9 |
| 20260508131029 | 10 | 333 | 4.8 | 14.5 | 0.00 | 0.00 | 0.00 | 56 | 1012.0 |
| 20260508130528 | 10 | 264 | 6.4 | 20.9 | 0.00 | 0.00 | 0.00 | 57 | 1012.2 |
| 20260508130045 | 10 | 349 | 6.4 | 20.9 | 0.00 | 0.00 | 0.00 | 56 | 1011.9 |
| 20260508125532 | 10 | 343 | 9.7 | 20.9 | 0.00 | 0.00 | 0.00 | 58 | 1012.1 |
| 20260508125028 | 10 | 304 | 4.8 | 16.1 | 0.00 | 0.00 | 0.00 | 57 | 1011.8 |
| 20260508124539 | 10 | 294 | 3.2 | 12.9 | 0.00 | 0.00 | 0.00 | 59 | 1011.8 |
| 20260508124028 | 9 | 326 | 4.8 | 12.9 | 0.00 | 0.00 | 0.00 | 58 | 1011.8 |
| 20260508123529 | 9 | 15 | 6.4 | 12.9 | 0.00 | 0.00 | 0.00 | 59 | 1011.8 |
| 20260508123044 | 8 | 288 | 3.2 | 17.7 | 0.00 | 0.00 | 0.00 | 60 | 1011.8 |
| 20260508122528 | 8 | 212 | 1.6 | 17.7 | 0.00 | 0.00 | 0.00 | 61 | 1011.8 |
| 20260508122028 | 8 | 321 | 6.4 | 17.7 | 0.00 | 0.00 | 0.00 | 61 | 1011.7 |
| 20260508121559 | 8 | 293 | 4.8 | 11.3 | 0.00 | 0.00 | 0.00 | 61 | 1011.8 |
| 20260508121029 | 8 | 307 | 3.2 | 20.9 | 0.00 | 0.00 | 0.00 | 59 | 1011.6 |
| 20260508120528 | 8 | 116 | 4.8 | 25.7 | 0.00 | 0.00 | 0.00 | 59 | 1011.6 |
| 20260508120043 | 8 | 315 | 8.0 | 25.7 | 0.00 | 0.00 | 0.00 | 58 | 1011.6 |
| 20260508115527 | 7 | 358 | 6.4 | 16.1 | 0.00 | 0.00 | 0.00 | 60 | 1011.5 |
| 20260508115028 | 7 | 262 | 4.8 | 16.1 | 0.00 | 0.00 | 0.00 | 62 | 1011.6 |
| 20260508114539 | 7 | 27 | 3.2 | 11.3 | 0.00 | 0.00 | 0.00 | 60 | 1011.5 |
| 20260508114029 | 7 | 65 | 4.8 | 12.9 | 0.00 | 0.00 | 0.00 | 61 | 1011.4 |
| 20260508113529 | 7 | 313 | 3.2 | 12.9 | 0.00 | 0.00 | 0.00 | 60 | 1011.4 |
| 20260508113035 | 7 | 314 | 3.2 | 12.9 | 0.00 | 0.00 | 0.00 | 62 | 1011.4 |
| 20260508112528 | 7 | 259 | 1.6 | 11.3 | 0.00 | 0.00 | 0.00 | 62 | 1011.5 |
| 20260508112029 | 6 | 36 | 3.2 | 6.4 | 0.00 | 0.00 | 0.00 | 63 | 1011.4 |
| 20260508111541 | 6 | 39 | 1.6 | 6.4 | 0.00 | 0.00 | 0.00 | 67 | 1011.4 |
| 20260508111030 | 6 | 351 | 1.6 | 6.4 | 0.00 | 0.00 | 0.00 | 69 | 1011.5 |
| 20260508110529 | 5 | 89 | 0.0 | 1.6 | 0.00 | 0.00 | 0.00 | 73 | 1011.5 |
| 20260508110051 | 4 | 139 | 0.0 | 3.2 | 0.00 | 0.00 | 0.00 | 74 | 1011.3 |
| 20260508105528 | 3 | 0 | 0.0 | 3.2 | 0.00 | 0.00 | 0.00 | 77 | 1011.2 |
| 20260508105029 | 3 | 131 | 0.0 | 1.6 | 0.00 | 0.00 | 0.00 | 80 | 1011.3 |
| 20260508104542 | 2 | 0 | 0.0 | 0.0 | 0.00 | 0.00 | 0.00 | 84 | 1011.3 |
| 20260508104028 | 2 | 0 | 0.0 | 0.0 | 0.00 | 0.00 | 0.00 | 87 | 1011.2 |
| 20260508103528 | 2 | 0 | 0.0 | 0.0 | 0.00 | 0.00 | 0.00 | 90 | 1011.3 |
| 20260508103037 | 1 | 0 | 0.0 | 0.0 | 0.00 | 0.00 | 0.00 | 91 | 1011.3 |
| 20260508102528 | 1 | 0 | 0.0 | 0.0 | 0.00 | 0.00 | 0.00 | 91 | 1011.3 |
| 20260508102029 | 0 | 0 | 0.0 | 0.0 | 0.00 | 0.00 | 0.00 | 90 | 1011.3 |
| 20260508101538 | 0 | 0 | 0.0 | 0.0 | 0.00 | 0.00 | 0.00 | 89 | 1011.2 |
| 20260508101032 | 0 | 0 | 0.0 | 0.0 | 0.00 | 0.00 | 0.00 | 89 | 1011.1 |
| 20260508100529 | 0 | 0 | 0.0 | 0.0 | 0.00 | 0.00 | 0.00 | 88 | 1011.1 |
| 20260508100045 | 0 | 0 | 0.0 | 0.0 | 0.00 | 0.00 | 0.00 | 88 | 1011.1 |
| 20260508095531 | 1 | 0 | 0.0 | 0.0 | 0.00 | 0.00 | 0.00 | 88 | 1010.8 |
| 20260508095030 | 1 | 0 | 0.0 | 0.0 | 0.00 | 0.00 | 0.00 | 88 | 1010.8 |
| 20260508094547 | 1 | 0 | 0.0 | 0.0 | 0.00 | 0.00 | 0.00 | 88 | 1010.8 |
| 20260508094029 | 1 | 0 | 0.0 | 0.0 | 0.00 | 0.00 | 0.00 | 88 | 1010.6 |
| 20260508093528 | 1 | 0 | 0.0 | 0.0 | 0.00 | 0.00 | 0.00 | 88 | 1010.5 |
| 20260508093040 | 1 | 0 | 0.0 | 0.0 | 0.00 | 0.00 | 0.00 | 88 | 1010.4 |
| 20260508092528 | 2 | 0 | 0.0 | 0.0 | 0.00 | 0.00 | 0.00 | 87 | 1010.4 |
| 20260508092028 | 2 | 0 | 0.0 | 0.0 | 0.00 | 0.00 | 0.00 | 88 | 1010.4 |
| 20260508091541 | 2 | 0 | 0.0 | 0.0 | 0.00 | 0.00 | 0.00 | 87 | 1010.3 |
| 20260508091028 | 2 | 0 | 0.0 | 0.0 | 0.00 | 0.00 | 0.00 | 87 | 1010.2 |
| 20260508090529 | 2 | 0 | 0.0 | 1.6 | 0.00 | 0.00 | 0.00 | 87 | 1010.2 |
| 20260508090038 | 2 | 0 | 0.0 | 1.6 | 0.00 | 0.00 | 0.00 | 88 | 1010.3 |
| 20260508085527 | 2 | 224 | 0.0 | 0.0 | 0.00 | 0.00 | 0.00 | 88 | 1010.2 |
| 20260508085031 | 2 | 0 | 0.0 | 0.0 | 0.00 | 0.00 | 0.00 | 87 | 1010.0 |
| 20260508084543 | 2 | 0 | 0.0 | 0.0 | 0.00 | 0.00 | 0.00 | 87 | 1010.2 |
| 20260508084033 | 2 | 0 | 0.0 | 0.0 | 0.00 | 0.00 | 0.00 | 86 | 1010.3 |
| 20260508083528 | 2 | 0 | 0.0 | 0.0 | 0.00 | 0.00 | 0.00 | 86 | 1010.2 |
| 20260508083119 | 2 | 0 | 0.0 | 1.6 | 0.00 | 0.00 | 0.00 | 86 | 1010.1 |
| 20260508082528 | 2 | 0 | 0.0 | 1.6 | 0.00 | 0.00 | 0.00 | 86 | 1010.2 |
| 20260508082028 | 2 | 200 | 0.0 | 0.0 | 0.00 | 0.00 | 0.00 | 86 | 1010.4 |
| 20260508081552 | 2 | 199 | 0.0 | 0.0 | 0.00 | 0.00 | 0.00 | 85 | 1010.4 |
| 20260508081028 | 2 | 0 | 0.0 | 0.0 | 0.00 | 0.00 | 0.00 | 86 | 1010.4 |
| 20260508080528 | 2 | 0 | 0.0 | 0.0 | 0.00 | 0.00 | 0.00 | 84 | 1010.2 |
| 20260508080035 | 1 | 0 | 0.0 | 0.0 | 0.00 | 0.00 | 0.00 | 86 | 1010.2 |
| 20260508075528 | 1 | 0 | 0.0 | 0.0 | 0.00 | 0.00 | 0.00 | 87 | 1010.2 |
| 20260508075028 | 1 | 0 | 0.0 | 3.2 | 0.00 | 0.00 | 0.00 | 87 | 1010.1 |
| 20260508074539 | 1 | 0 | 0.0 | 3.2 | 0.00 | 0.00 | 0.00 | 88 | 1010.0 |
| 20260508074028 | 1 | 0 | 0.0 | 1.6 | 0.00 | 0.00 | 0.00 | 89 | 1010.0 |
| 20260508073529 | 1 | 0 | 0.0 | 0.0 | 0.00 | 0.00 | 0.00 | 88 | 1010.0 |
| 20260508073041 | 1 | 0 | 0.0 | 0.0 | 0.00 | 0.00 | 0.00 | 88 | 1010.0 |
| 20260508072528 | 1 | 0 | 0.0 | 0.0 | 0.00 | 0.00 | 0.00 | 88 | 1010.0 |
| 20260508072028 | 1 | 0 | 0.0 | 0.0 | 0.00 | 0.00 | 0.00 | 87 | 1010.0 |
| 20260508071544 | 1 | 0 | 0.0 | 0.0 | 0.00 | 0.00 | 0.00 | 87 | 1010.0 |
| 20260508071028 | 1 | 0 | 0.0 | 0.0 | 0.00 | 0.00 | 0.00 | 86 | 1009.9 |
| 20260508070531 | 1 | 0 | 0.0 | 0.0 | 0.00 | 0.00 | 0.00 | 86 | 1009.9 |
| 20260508070044 | 1 | 0 | 0.0 | 0.0 | 0.00 | 0.00 | 0.00 | 86 | 1009.9 |
| 20260508065525 | 1 | 0 | 0.0 | 0.0 | 0.00 | 0.00 | 0.00 | 86 | 1009.9 |
| 20260508065027 | 1 | 0 | 0.0 | 0.0 | 0.00 | 0.00 | 0.00 | 86 | 1009.8 |
| 20260508064601 | 1 | 0 | 0.0 | 0.0 | 0.00 | 0.00 | 0.00 | 85 | 1009.7 |
| 20260508064028 | 1 | 0 | 0.0 | 0.0 | 0.00 | 0.00 | 0.00 | 86 | 1009.6 |
| 20260508063528 | 1 | 0 | 0.0 | 0.0 | 0.00 | 0.00 | 0.00 | 84 | 1009.7 |
| 20260508063045 | 1 | 0 | 0.0 | 0.0 | 0.00 | 0.00 | 0.00 | 84 | 1009.6 |
| 20260508062524 | 1 | 0 | 0.0 | 0.0 | 0.00 | 0.00 | 0.00 | 83 | 1009.5 |
| 20260508062028 | 1 | 0 | 0.0 | 0.0 | 0.00 | 0.00 | 0.00 | 83 | 1009.5 |
| 20260508061543 | 1 | 0 | 0.0 | 0.0 | 0.00 | 0.00 | 0.00 | 84 | 1009.5 |
| 20260508061031 | 2 | 0 | 0.0 | 0.0 | 0.00 | 0.00 | 0.00 | 82 | 1009.5 |
| 20260508060529 | 2 | 0 | 0.0 | 0.0 | 0.00 | 0.00 | 0.00 | 82 | 1009.4 |
| 20260508060045 | 2 | 0 | 0.0 | 1.6 | 0.00 | 0.00 | 0.00 | 82 | 1009.4 |
| 20260508055528 | 2 | 0 | 0.0 | 1.6 | 0.00 | 0.00 | 0.00 | 81 | 1009.5 |
| 20260508055029 | 2 | 283 | 0.0 | 1.6 | 0.00 | 0.00 | 0.00 | 82 | 1009.3 |
| 20260508054540 | 2 | 0 | 0.0 | 1.6 | 0.00 | 0.00 | 0.00 | 81 | 1009.2 |
| 20260508054025 | 2 | 283 | 0.0 | 1.6 | 0.00 | 0.00 | 0.00 | 82 | 1009.3 |
| 20260508053526 | 2 | 0 | 0.0 | 3.2 | 0.00 | 0.00 | 0.00 | 82 | 1009.4 |
| 20260508053035 | 2 | 332 | 0.0 | 3.2 | 0.00 | 0.00 | 0.00 | 82 | 1009.4 |
| 20260508052527 | 2 | 321 | 0.0 | 1.6 | 0.00 | 0.00 | 0.00 | 81 | 1009.6 |
| 20260508052025 | 2 | 0 | 0.0 | 1.6 | 0.00 | 0.00 | 0.00 | 80 | 1009.6 |
| 20260508051538 | 3 | 0 | 0.0 | 1.6 | 0.00 | 0.00 | 0.00 | 79 | 1009.7 |
| 20260508051028 | 3 | 0 | 0.0 | 1.6 | 0.00 | 0.00 | 0.00 | 79 | 1009.7 |
| 20260508050529 | 3 | 295 | 0.0 | 1.6 | 0.00 | 0.00 | 0.00 | 78 | 1009.8 |
| 20260508050048 | 3 | 0 | 0.0 | 1.6 | 0.00 | 0.00 | 0.00 | 80 | 1009.9 |
| 20260508045528 | 3 | 0 | 0.0 | 1.6 | 0.00 | 0.00 | 0.00 | 80 | 1009.8 |
| 20260508045028 | 3 | 0 | 0.0 | 1.6 | 0.00 | 0.00 | 0.00 | 80 | 1009.8 |
| 20260508044543 | 3 | 0 | 0.0 | 1.6 | 0.00 | 0.00 | 0.00 | 79 | 1009.6 |
| 20260508044031 | 3 | 284 | 0.0 | 1.6 | 0.00 | 0.00 | 0.00 | 78 | 1009.6 |
| 20260508043533 | 3 | 0 | 0.0 | 1.6 | 0.00 | 0.00 | 0.00 | 78 | 1009.6 |
| 20260508043041 | 3 | 0 | 0.0 | 1.6 | 0.00 | 0.00 | 0.00 | 78 | 1009.8 |
| 20260508042529 | 3 | 0 | 0.0 | 0.0 | 0.00 | 0.00 | 0.00 | 78 | 1009.7 |
| 20260508042030 | 3 | 0 | 0.0 | 0.0 | 0.00 | 0.00 | 0.00 | 78 | 1009.9 |
| 20260508041548 | 3 | 0 | 0.0 | 1.6 | 0.00 | 0.00 | 0.00 | 78 | 1010.0 |
| 20260508041030 | 3 | 0 | 0.0 | 1.6 | 0.00 | 0.00 | 0.00 | 78 | 1010.0 |
| 20260508040529 | 3 | 300 | 0.0 | 1.6 | 0.00 | 0.00 | 0.00 | 79 | 1010.0 |
| 20260508040048 | 3 | 0 | 0.0 | 0.0 | 0.00 | 0.00 | 0.00 | 79 | 1010.2 |
| 20260508035531 | 3 | 0 | 0.0 | 0.0 | 0.00 | 0.00 | 0.00 | 79 | 1010.1 |
| 20260508035032 | 3 | 0 | 0.0 | 0.0 | 0.00 | 0.00 | 0.00 | 79 | 1010.0 |
| 20260508034544 | 3 | 0 | 0.0 | 0.0 | 0.00 | 0.00 | 0.00 | 78 | 1010.0 |
| 20260508034031 | 3 | 0 | 0.0 | 0.0 | 0.00 | 0.00 | 0.00 | 77 | 1010.0 |
| 20260508033531 | 4 | 0 | 0.0 | 0.0 | 0.00 | 0.00 | 0.00 | 76 | 1010.0 |
| 20260508033045 | 4 | 0 | 0.0 | 0.0 | 0.00 | 0.00 | 0.00 | 75 | 1010.0 |
| 20260508032531 | 4 | 0 | 0.0 | 0.0 | 0.00 | 0.00 | 0.00 | 74 | 1010.1 |
| 20260508032031 | 4 | 0 | 0.0 | 0.0 | 0.00 | 0.00 | 0.00 | 74 | 1010.0 |
| 20260508031541 | 5 | 0 | 0.0 | 0.0 | 0.00 | 0.00 | 0.00 | 73 | 1010.1 |
| 20260508031030 | 5 | 0 | 0.0 | 0.0 | 0.00 | 0.00 | 0.00 | 73 | 1010.1 |
| 20260508030530 | 5 | 0 | 0.0 | 0.0 | 0.00 | 0.00 | 0.00 | 73 | 1010.1 |
| 20260508030037 | 5 | 0 | 0.0 | 0.0 | 0.00 | 0.00 | 0.00 | 73 | 1010.2 |
| 20260508025530 | 5 | 0 | 0.0 | 0.0 | 0.00 | 0.00 | 0.00 | 75 | 1010.0 |
| 20260508025033 | 5 | 0 | 0.0 | 0.0 | 0.00 | 0.00 | 0.00 | 75 | 1010.0 |
| 20260508024541 | 6 | 0 | 0.0 | 0.0 | 0.00 | 0.00 | 0.00 | 73 | 1009.9 |
| 20260508024030 | 6 | 0 | 0.0 | 0.0 | 0.00 | 0.00 | 0.00 | 72 | 1010.0 |
| 20260508023530 | 5 | 0 | 0.0 | 0.0 | 0.00 | 0.00 | 0.00 | 71 | 1010.0 |
| 20260508023042 | 6 | 0 | 0.0 | 0.0 | 0.00 | 0.00 | 0.00 | 71 | 1010.0 |
| 20260508022529 | 6 | 0 | 0.0 | 0.0 | 0.00 | 0.00 | 0.00 | 71 | 1009.9 |
| 20260508022031 | 6 | 0 | 0.0 | 0.0 | 0.00 | 0.00 | 0.00 | 70 | 1009.9 |
| 20260508021541 | 6 | 0 | 0.0 | 0.0 | 0.00 | 0.00 | 0.00 | 70 | 1009.8 |
| 20260508021032 | 6 | 0 | 0.0 | 0.0 | 0.00 | 0.00 | 0.00 | 70 | 1009.8 |
| 20260508020529 | 6 | 0 | 0.0 | 1.6 | 0.00 | 0.00 | 0.00 | 67 | 1009.8 |
| 20260508020047 | 6 | 0 | 0.0 | 1.6 | 0.00 | 0.00 | 0.00 | 65 | 1009.6 |
| 20260508015530 | 6 | 0 | 0.0 | 0.0 | 0.00 | 0.03 | 0.00 | 64 | 1009.9 |
| 20260508015030 | 6 | 0 | 0.0 | 0.0 | 0.00 | 0.03 | 0.00 | 63 | 1009.8 |
| 20260508014542 | 7 | 0 | 0.0 | 0.0 | 0.00 | 0.03 | 0.00 | 64 | 1009.8 |
| 20260508014030 | 7 | 0 | 0.0 | 0.0 | 0.00 | 0.03 | 0.00 | 62 | 1009.9 |
| 20260508013530 | 7 | 0 | 0.0 | 0.0 | 0.00 | 0.03 | 0.00 | 62 | 1009.9 |
| 20260508013041 | 7 | 0 | 0.0 | 0.0 | 0.00 | 0.03 | 0.00 | 61 | 1010.0 |
| 20260508012530 | 7 | 0 | 0.0 | 1.6 | 0.00 | 0.03 | 0.00 | 60 | 1009.8 |
| 20260508012028 | 8 | 0 | 0.0 | 1.6 | 0.00 | 0.03 | 0.00 | 57 | 1009.6 |
| 20260508011549 | 8 | 0 | 0.0 | 1.6 | 0.00 | 0.03 | 0.00 | 55 | 1009.6 |
| 20260508011028 | 8 | 0 | 0.0 | 1.6 | 0.00 | 0.03 | 0.00 | 56 | 1009.5 |
| 20260508010525 | 8 | 0 | 0.0 | 1.6 | 0.00 | 0.03 | 0.00 | 56 | 1009.6 |
| 20260508010056 | 8 | 0 | 0.0 | 1.6 | 0.00 | 0.03 | 0.00 | 54 | 1009.3 |
| 20260508005532 | 8 | 0 | 0.0 | 1.6 | 0.00 | 0.15 | 0.00 | 52 | 1009.2 |
| 20260508005025 | 9 | 0 | 0.0 | 1.6 | 0.00 | 0.15 | 0.00 | 51 | 1009.2 |
| 20260508004555 | 10 | 0 | 0.0 | 4.8 | 0.00 | 0.15 | 0.00 | 48 | 1009.1 |
| 20260508004030 | 10 | 0 | 0.0 | 4.8 | 0.00 | 0.15 | 0.00 | 46 | 1009.1 |
| 20260508003524 | 10 | 0 | 0.0 | 9.7 | 0.00 | 0.15 | 0.00 | 45 | 1009.0 |
| 20260508003045 | 10 | 289 | 1.6 | 9.7 | 0.00 | 0.15 | 0.00 | 46 | 1008.9 |
| 20260508002525 | 10 | 21 | 1.6 | 9.7 | 0.00 | 0.15 | 0.00 | 45 | 1008.9 |
| 20260508002029 | 10 | 11 | 0.0 | 6.4 | 0.00 | 0.15 | 0.00 | 45 | 1008.8 |
| 20260508001545 | 10 | 0 | 1.6 | 6.4 | 0.00 | 0.15 | 0.00 | 44 | 1008.9 |
| 20260508001028 | 11 | 0 | 0.0 | 3.2 | 0.00 | 0.15 | 0.00 | 44 | 1008.8 |
| 20260508000533 | 11 | 0 | 0.0 | 6.4 | 0.00 | 0.15 | 0.00 | 42 | 1008.8 |